Tracking 19149 objects as of 19-Apr-2018
HD Live streaming from Space Station
objects crossing your sky now

ALEXIS


10-day predictions
ALEXIS is classified as:


NORAD ID: 22638
Int'l Code: 1993-026A
Launch date: April 25, 1993
Source: United States (US)
Launch site: AIR FORCE WESTERN TEST RANGE (AFWTR)
aabbcc
Your satellite tracking list
Your tracking list is empty




NASA's NSSDC Master Catalog

Two Line Element Set (TLE):
1 22638U 93026A   14195.23738836 0.00000400  00000-0  14369-3 0    04
2 22638  69.9196 149.2705 0060111 359.1065   0.8935 14.32770503    06
Source of the keplerian elements: McCants